Zurück zum Katalog

STARLINK-31120

AktivKommunikationVLEO
NORAD 58778·PAYLOAD·🇺🇸 United States

Gestartet Jan 14, 2024 von Vandenberg Space Force Base

Loading…

Nächste Überflüge (nächste 24 Stunden)

TLE

AktuellSource: CelesTrak SupGP

Epoche: Sep 14, 2026, 21:12 UTC

1 58778C 24011P   26257.88381944  .00026732  00000+0  78954-3 0  2572
2 58778  53.1585 212.0515 0001478  93.5519  14.3885 15.34387732    15

Verfolge STARLINK-31120 in Echtzeit mit AllMySat

Download on the App Store